When you browse on this site, cookies collect data to enhance your experience and personalize the content and advertising you see.
Visit our Privacy Policy to learn more. By continuing to use the site, you agree to this use of cookies and data.
  • In Hungary
  • List of Countries
  • For 7 days
  • Water Temperature
  • Weather Map
  • News
  • Weather Widgets
  • user-avatar
    Login

    Hourly Weather Lyahi

    Today, 15 December, Sunday

    Time Temperature Precipitation Wind Pressure Humidity
    00:00 -1°C° 0.3 mm 6 mps 739 mmHg 94%
    01:00 0°C° 0.3 mm 5 mps 739 mmHg 94%
    02:00 +1°C° 0.3 mm 5 mps 739 mmHg 95%
    03:00 +1°C° 0.2 mm 5 mps 738 mmHg 95%
    04:00 +1°C° 0.2 mm 5 mps 738 mmHg 95%
    05:00 +1°C° 0.2 mm 5 mps 737 mmHg 95%
    06:00 +1°C° 0.4 mm 5 mps 737 mmHg 95%
    07:00 +1°C° 0.4 mm 4 mps 737 mmHg 95%
    08:00 +1°C° 0.4 mm 4 mps 737 mmHg 95%
    09:00 +1°C° 0.5 mm 4 mps 737 mmHg 94%
    10:00 +1°C° 0.5 mm 5 mps 737 mmHg 94%
    11:00 +1°C° 0.5 mm 5 mps 737 mmHg 94%
    12:00 +1°C° 0 mm 5 mps 738 mmHg 92%
    13:00 +1°C° 0 mm 5 mps 738 mmHg 90%
    14:00 +1°C° 0 mm 5 mps 739 mmHg 89%
    15:00 +1°C° 0 mm 5 mps 739 mmHg 86%
    16:00 +1°C° 0 mm 5 mps 740 mmHg 84%
    17:00 +1°C° 0 mm 5 mps 740 mmHg 81%
    18:00 0°C° 0 mm 4 mps 741 mmHg 84%
    19:00 0°C° 0 mm 4 mps 741 mmHg 87%
    20:00 0°C° 0 mm 3 mps 741 mmHg 91%
    21:00 -1°C° 0 mm 4 mps 741 mmHg 90%
    22:00 -1°C° 0 mm 4 mps 741 mmHg 90%
    23:00 -1°C° 0 mm 4 mps 742 mmHg 89%

    Tomorrow, 16 December, Monday

    Time Temperature Precipitation Wind Pressure Humidity
    00:00 0°C° 0.1 mm 5 mps 741 mmHg 91%
    01:00 0°C° 0.1 mm 5 mps 741 mmHg 93%
    02:00 0°C° 0.1 mm 5 mps 741 mmHg 95%
    03:00 +1°C° 0 mm 5 mps 741 mmHg 93%
    04:00 +1°C° 0 mm 5 mps 741 mmHg 92%
    05:00 +1°C° 0 mm 5 mps 741 mmHg 90%
    06:00 +1°C° 0 mm 5 mps 742 mmHg 89%
    07:00 +1°C° 0 mm 5 mps 742 mmHg 87%
    08:00 0°C° 0 mm 5 mps 742 mmHg 85%
    09:00 +1°C° 0 mm 6 mps 742 mmHg 83%
    10:00 0°C° 0 mm 7 mps 743 mmHg 80%
    11:00 0°C° 0 mm 8 mps 743 mmHg 77%
    12:00 +1°C° 0 mm 8 mps 744 mmHg 76%
    13:00 +1°C° 0 mm 8 mps 744 mmHg 74%
    14:00 +3°C° 0 mm 7 mps 745 mmHg 73%
    15:00 +2°C° 0 mm 7 mps 746 mmHg 75%
    16:00 +2°C° 0 mm 6 mps 746 mmHg 77%
    17:00 +2°C° 0 mm 5 mps 747 mmHg 78%
    18:00 +1°C° 0 mm 5 mps 748 mmHg 82%
    19:00 0°C° 0 mm 4 mps 748 mmHg 86%
    20:00 0°C° 0 mm 4 mps 748 mmHg 89%
    21:00 0°C° 0 mm 3 mps 749 mmHg 90%
    22:00 0°C° 0 mm 3 mps 749 mmHg 90%
    23:00 0°C° 0 mm 3 mps 749 mmHg 91%

    Day after tomorrow, 17 December, Tuesday

    Time Temperature Precipitation Wind Pressure Humidity
    00:00 0°C° 0 mm 3 mps 749 mmHg 89%
    01:00 0°C° 0 mm 3 mps 749 mmHg 88%
    02:00 0°C° 0 mm 3 mps 749 mmHg 87%
    03:00 0°C° 0 mm 3 mps 749 mmHg 86%
    04:00 +1°C° 0 mm 3 mps 748 mmHg 85%
    05:00 +1°C° 0 mm 3 mps 748 mmHg 85%
    06:00 +1°C° 0.4 mm 4 mps 747 mmHg 87%
    07:00 +1°C° 0.4 mm 4 mps 747 mmHg 90%
    08:00 +2°C° 0.4 mm 5 mps 746 mmHg 92%
    09:00 +3°C° 0.3 mm 4 mps 747 mmHg 92%
    10:00 +3°C° 0.3 mm 4 mps 747 mmHg 92%
    11:00 +3°C° 0.3 mm 4 mps 747 mmHg 92%
    12:00 +4°C° 0.1 mm 4 mps 746 mmHg 91%
    13:00 +4°C° 0.1 mm 3 mps 746 mmHg 90%
    14:00 +4°C° 0.1 mm 3 mps 746 mmHg 89%
    15:00 +4°C° 0 mm 3 mps 746 mmHg 91%
    16:00 +3°C° 0 mm 3 mps 746 mmHg 92%
    17:00 +4°C° 0 mm 2 mps 746 mmHg 94%
    18:00 +3°C° 0 mm 2 mps 747 mmHg 95%
    19:00 +3°C° 0 mm 2 mps 747 mmHg 95%
    20:00 +2°C° 0 mm 2 mps 747 mmHg 96%
    21:00 +2°C° 0 mm 2 mps 747 mmHg 96%
    22:00 +2°C° 0 mm 2 mps 747 mmHg 96%
    23:00 +2°C° 0 mm 2 mps 747 mmHg 96%

    18 December, Wednesday

    Time Temperature Precipitation Wind Pressure Humidity
    00:00 +2°C° 0 mm 2 mps 747 mmHg 96%
    01:00 +2°C° 0 mm 2 mps 747 mmHg 96%
    02:00 +2°C° 0 mm 2 mps 747 mmHg 96%
    03:00 +2°C° 0 mm 2 mps 747 mmHg 95%
    04:00 +2°C° 0 mm 2 mps 747 mmHg 95%
    05:00 +2°C° 0 mm 2 mps 747 mmHg 95%
    06:00 +3°C° 0 mm 2 mps 746 mmHg 95%
    07:00 +3°C° 0 mm 2 mps 746 mmHg 95%
    08:00 +3°C° 0 mm 2 mps 746 mmHg 94%
    09:00 +2°C° 0 mm 3 mps 746 mmHg 93%
    10:00 +3°C° 0 mm 3 mps 746 mmHg 91%
    11:00 +3°C° 0 mm 3 mps 746 mmHg 90%
    12:00 +4°C° 0 mm 3 mps 746 mmHg 89%
    13:00 +4°C° 0 mm 3 mps 746 mmHg 88%
    14:00 +4°C° 0 mm 3 mps 745 mmHg 88%
    15:00 +4°C° 0 mm 3 mps 745 mmHg 89%
    16:00 +3°C° 0 mm 3 mps 745 mmHg 91%
    17:00 +3°C° 0 mm 3 mps 745 mmHg 92%
    18:00 +3°C° 0 mm 4 mps 745 mmHg 92%
    19:00 +3°C° 0 mm 4 mps 745 mmHg 92%
    20:00 +3°C° 0 mm 4 mps 745 mmHg 91%
    21:00 +3°C° 0 mm 4 mps 745 mmHg 91%
    22:00 +3°C° 0 mm 5 mps 745 mmHg 91%
    23:00 +3°C° 0 mm 5 mps 745 mmHg 91%

    19 December, Thursday

    Time Temperature Precipitation Wind Pressure Humidity
    00:00 +3°C° 0 mm 5 mps 745 mmHg 91%
    01:00 +3°C° 0 mm 5 mps 745 mmHg 91%
    02:00 +3°C° 0 mm 5 mps 745 mmHg 90%
    03:00 +3°C° 0 mm 5 mps 745 mmHg 89%
    04:00 +4°C° 0 mm 4 mps 745 mmHg 87%
    05:00 +4°C° 0 mm 4 mps 745 mmHg 86%
    06:00 +4°C° 0 mm 4 mps 746 mmHg 86%
    07:00 +3°C° 0 mm 4 mps 746 mmHg 85%
    08:00 +3°C° 0 mm 3 mps 746 mmHg 85%
    09:00 +3°C° 0 mm 3 mps 747 mmHg 83%
    10:00 +3°C° 0 mm 3 mps 747 mmHg 82%
    11:00 +2°C° 0 mm 3 mps 748 mmHg 80%
    12:00 +2°C° 0 mm 3 mps 748 mmHg 79%
    13:00 +3°C° 0 mm 2 mps 748 mmHg 78%
    14:00 +3°C° 0 mm 2 mps 748 mmHg 77%
    15:00 +3°C° 0 mm 2 mps 748 mmHg 79%
    16:00 +3°C° 0 mm 1 mps 748 mmHg 82%
    17:00 +3°C° 0 mm 1 mps 749 mmHg 84%
    18:00 +2°C° 0 mm 1 mps 749 mmHg 86%
    19:00 +2°C° 0 mm 1 mps 749 mmHg 88%
    20:00 +1°C° 0 mm 1 mps 749 mmHg 89%
    21:00 +1°C° 0 mm 1 mps 749 mmHg 90%
    22:00 +1°C° 0 mm 1 mps 749 mmHg 91%
    23:00 +1°C° 0 mm 1 mps 750 mmHg 92%

    20 December, Friday

    Time Temperature Precipitation Wind Pressure Humidity
    00:00 +1°C° 0 mm 1 mps 750 mmHg 92%
    01:00 -1°C° 0 mm 2 mps 750 mmHg 91%
    02:00 -1°C° 0 mm 2 mps 750 mmHg 90%
    03:00 +1°C° 0 mm 1 mps 750 mmHg 87%
    04:00 +1°C° 0 mm 1 mps 750 mmHg 84%
    05:00 +1°C° 0 mm 1 mps 750 mmHg 81%
    06:00 +1°C° 0 mm 1 mps 750 mmHg 81%
    07:00 +1°C° 0 mm 1 mps 750 mmHg 81%
    08:00 -1°C° 0 mm 0 mps 750 mmHg 82%
    09:00 -1°C° 0 mm 0 mps 750 mmHg 80%
    10:00 0°C° 0 mm 0 mps 750 mmHg 78%
    11:00 0°C° 0 mm 0 mps 751 mmHg 77%
    12:00 0°C° 0 mm 0 mps 750 mmHg 77%
    13:00 0°C° 0 mm 0 mps 750 mmHg 76%
    14:00 +1°C° 0 mm 1 mps 750 mmHg 76%
    15:00 +1°C° 0 mm 1 mps 750 mmHg 79%
    16:00 0°C° 0 mm 1 mps 750 mmHg 82%
    17:00 -1°C° 0 mm 1 mps 750 mmHg 85%
    18:00 -1°C° 0 mm 1 mps 750 mmHg 86%
    19:00 -1°C° 0 mm 1 mps 750 mmHg 86%
    20:00 -1°C° 0 mm 1 mps 750 mmHg 86%
    21:00 -1°C° 0 mm 1 mps 750 mmHg 85%
    22:00 -1°C° 0 mm 1 mps 750 mmHg 85%
    23:00 -3°C° 0 mm 2 mps 750 mmHg 85%
    Show more